Hourly Data Report for October 29, 2016

All times are specified in Local Standard Time (LST). Add 1 hour to adjust for Daylight Saving Time where and when it is observed.

RANKIN INLET A
NUNAVUT

62°48'38.000" N
92°06'53.000" W
32.30 m
2303405
71083
YRT

Download Data

Hourly Data (October 2016)
Hourly Data Report for October 29, 2016
Temp Definition
°C
Dew Point Temp Definition
°C
Rel Hum Definition
%
Wind Dir Definition
10's deg

Wind Spd Definition
km/h
Visibility Definition
km
Stn Press Definition
kPa
Hmdx Definition


Wind Chill Definition


Weather Definition


TIME
00:00 Legend Double Dagger -12.1 -13.7 88 6 14 6.4 100.36   -19 Snow
01:00 Legend Double Dagger -11.4 -12.9 89 7 21 6.4 100.20   -20 Snow
02:00 Legend Double Dagger -10.8 -12.3 89 6 25 9.7 100.06   -20 Snow
03:00 Legend Double Dagger -11.1 -12.7 88 5 30 9.7 100.00   -21 Snow
04:00 Legend Double Dagger -12.1 -14.0 86 4 31 9.7 99.96   -22 Snow,Blowing Snow
05:00 Legend Double Dagger -12.6 -14.6 85 3 36 12.9 99.97   -24 Snow,Blowing Snow
06:00 Legend Double Dagger -13.3 -15.3 85 2 32 12.9 100.00   -24 Snow,Blowing Snow
07:00 Legend Double Dagger -15.7 -17.7 85 36 34 12.9 100.01   -28 Snow,Blowing Snow
08:00 Legend Double Dagger -17.5 -19.9 82 36 31 12.9 100.05   -29 Ice Crystals,Blowing Snow
09:00 Legend Double Dagger -19.7 -22.2 81 35 28 8.1 100.07   -32 Ice Crystals,Blowing Snow
10:00 Legend Double Dagger -18.7 -20.8 84 35 34 1.2 100.07   -32 Ice Crystals,Blowing Snow
11:00 Legend Double Dagger -16.1 -18.4 83 34 32 4.8 100.09   -28 Ice Crystals,Blowing Snow
12:00 Legend Double Dagger -13.8 -15.8 85 34 31 8.1 100.05   -25 Ice Crystals,Blowing Snow
13:00 Legend Double Dagger -12.6 -14.6 85 33 35 8.1 100.06   -24 Snow,Blowing Snow
14:00 Legend Double Dagger -13.8 -16.0 84 31 37 6.4 100.05   -25 Snow,Blowing Snow
15:00 Legend Double Dagger -14.3 -16.6 83 30 34 9.7 100.04   -26 Snow,Blowing Snow
16:00 Legend Double Dagger -13.7 -15.9 84 30 31 8.1 100.02   -25 Snow,Blowing Snow
17:00 Legend Double Dagger -13.9 -15.9 85 31 31 8.1 100.01   -25 Snow,Blowing Snow
18:00 Legend Double Dagger -12.6 -14.6 85 32 33 8.1 100.00   -23 Snow,Blowing Snow
19:00 Legend Double Dagger -12.5 -14.5 85 33 37 4.8 100.04   -24 Snow,Blowing Snow
20:00 Legend Double Dagger -13.8 -16.0 84 34 37 9.7 100.06   -25 Snow,Blowing Snow
21:00 Legend Double Dagger -14.5 -16.5 85 31 34 12.9 100.05   -26 Snow,Blowing Snow
22:00 Legend Double Dagger -15.1 -17.2 84 30 28 16.1 100.00   -26 Snow,Blowing Snow
23:00 Legend Double Dagger -12.6 -14.3 87 26 23 6.4 99.89   -22 Snow,Blowing Snow

Notes on Data Quality.

Legend

  • E = Estimated
  • M = Missing
  • NA = Not Available
  • ‡ = Partner data that is not subject to review by the National Climate Archives
Date modified: